Temp_Advection
nan nan nan nan nan nan nan nan nan nan nan nan nan nan nan nan nan nan nan nan nan nan
nan 0 0 -0 -0 -0 -0 -0 -0 -0 -0 -0 -0 -0 -0 -0 0 0 0 0 0 nan
nan -0 -0 -0 -0 -0 -0 -0 -0 -0 -0 -0 -0 -0 0 0 0 0 0 0 0 nan
nan -0 -0 -0 -0 -0 -0 -0 -0 -0 -0 -0 -0 -0 -0 0 0 0 0 0 0 nan
nan 0 0 -0 -0 -0 -0 -0 -0 -0 -0 -0 -0 -0 -0 0 0 0 0 0 0 nan
nan 0 -0 -0 -0 -0 -0 -0 -0 -0 -0 -0 -0 -0 -0 0 0 0 0 0 0 nan
nan -0 -0 -0 -0 -0 -0 -0 -0 -0 0 -0 0 0 0 0 0 0 0 0 -0 nan
nan -0 -0 -0 0 0 0 0 -0 -0 -0 -0 -0 0 0 -0 -0 -0 -0 -0 0 nan
nan -0 -0 -0 -0 0 0 -0 0 0 0 0 -0 -0 -0 -0 -0 0 0 -0 -0 nan
nan 0 0 0 0 0 0 0 0 0 0 0 -0 -0 -0 -0 0 -0 -0 -0 -0 nan
nan 0 0 0 0 0 0 0 0 0 0 0 -0 -0 0 -0 -0 -0 -0 -0 -0 nan
nan 0 0 0 -0 -0 -0 -0 -0 0 0 0 -0 -0 -0 -0 -0 -0 -0 -0 -0 nan
nan -0 -0 -0 -0 -0 -0 0 0 0 0 0 -0 -0 -0 -0 -0 -0 -0 -0 -0 nan
nan nan nan nan nan nan nan nan nan nan nan nan nan nan nan nan nan nan nan nan nan nan
Wind_Speed
14 15 16 16 16 16 17 18 19 20 20 20 20 19 19 20 19 21 22 20 17 18
15 15 15 15 15 16 16 16 17 17 17 18 18 17 17 16 17 18 18 21 21 20
14 14 14 14 15 15 15 15 14 14 14 15 15 15 14 14 15 14 15 17 16 17
14 14 14 14 14 14 14 13 13 12 13 14 15 15 16 15 14 14 15 16 16 16
14 14 14 14 14 13 13 13 12 13 13 14 15 15 15 15 15 14 13 13 14 15
14 14 14 13 13 13 13 12 12 12 11 11 11 12 12 11 12 12 11 11 10 9
12 12 12 12 12 12 11 10 10 9 9 8 8 8 8 4 3 4 4 5 4 4
9 8 8 9 10 10 9 9 8 7 6 5 5 3 1 1 2 2 2 2 1 2
9 8 8 9 9 7 7 6 5 4 2 1 2 6 7 8 7 6 5 5 5 5
11 9 9 10 9 8 6 4 3 3 4 5 6 7 8 8 7 6 6 6 6 4
11 10 10 8 7 8 7 7 6 7 8 8 9 8 6 6 6 6 6 6 5 6
12 11 8 7 8 9 9 9 9 9 8 7 6 6 6 6 5 6 6 6 7 7
10 9 8 8 9 11 11 9 9 8 6 4 3 3 3 4 5 7 7 8 9 10
10 10 10 12 11 10 9 9 7 5 3 1 1 2 3 5 7 8 8 9 9 10
Wind_Direction
279 279 279 279 279 279 279 279 279 279 279 278 276 274 268 262 259 252 254 257 255 269
280 281 281 280 279 280 282 285 287 287 286 284 281 275 269 264 258 253 249 256 262 263
280 279 277 276 277 279 283 285 286 287 286 286 284 281 275 266 259 252 251 252 255 260
281 277 273 272 274 277 281 281 281 283 284 284 282 279 275 270 264 257 253 256 262 267
278 273 270 268 270 272 275 278 280 284 287 290 289 285 276 267 262 257 257 257 262 272
272 268 267 267 267 269 272 276 280 286 289 291 298 303 291 264 251 247 250 254 259 255
265 261 260 260 261 264 267 273 276 279 281 284 300 307 304 261 212 212 215 233 241 252
265 261 262 261 258 257 258 260 263 268 270 275 305 301 308 108 169 188 159 148 123 78
265 269 282 279 268 258 255 257 254 243 219 171 96 93 92 86 90 93 90 86 85 67
257 262 266 269 256 240 232 205 193 167 144 129 114 102 100 92 82 71 63 55 52 36
253 255 256 248 232 206 180 167 156 139 121 109 107 101 86 74 58 46 32 22 8 355
244 241 232 213 183 173 164 153 136 124 115 108 89 73 52 38 26 11 1 350 343 340
225 215 200 186 170 159 147 142 141 132 117 103 82 61 35 16 8 355 349 344 337 329
210 200 184 170 163 160 161 162 156 144 142 132 27 355 7 357 351 346 341 336 330 326
Height
1509 1510 1510 1510 1510 1510 1510 1510 1510 1509 1508 1508 1507 1507 1508 1508 1508 1510 1511 1511 1512 1513
1506 1506 1506 1506 1506 1506 1505 1505 1505 1504 1504 1503 1503 1502 1502 1503 1504 1504 1505 1506 1507 1508
1502 1502 1502 1502 1502 1502 1502 1502 1502 1501 1500 1500 1499 1498 1497 1498 1498 1499 1500 1501 1502 1503
1498 1498 1498 1498 1498 1497 1498 1498 1498 1497 1497 1496 1495 1494 1494 1493 1493 1494 1495 1496 1497 1497
1493 1493 1493 1494 1494 1494 1494 1494 1494 1493 1493 1492 1491 1490 1489 1488 1489 1489 1490 1491 1491 1491
1489 1489 1489 1490 1490 1490 1490 1490 1490 1489 1489 1487 1487 1486 1484 1483 1484 1485 1486 1486 1486 1487
1485 1485 1485 1485 1486 1487 1486 1487 1487 1486 1486 1485 1484 1483 1481 1481 1481 1481 1481 1482 1483 1483
1482 1482 1482 1482 1482 1483 1483 1484 1484 1484 1483 1483 1481 1481 1480 1480 1481 1481 1481 1481 1481 1481
1480 1479 1479 1479 1479 1479 1480 1480 1482 1482 1481 1481 1480 1480 1480 1481 1481 1481 1481 1481 1481 1480
1477 1476 1476 1477 1477 1477 1478 1478 1480 1481 1480 1480 1480 1481 1481 1482 1482 1482 1482 1482 1481 1480
1474 1474 1474 1474 1474 1475 1477 1478 1479 1480 1480 1480 1481 1482 1482 1482 1482 1482 1482 1481 1480 1479
1471 1471 1470 1472 1473 1474 1476 1477 1479 1480 1481 1482 1483 1482 1483 1482 1482 1482 1481 1480 1479 1478
1468 1468 1469 1471 1472 1474 1476 1478 1479 1481 1481 1482 1482 1482 1482 1482 1481 1480 1479 1478 1477 1476
1466 1467 1469 1471 1472 1474 1476 1478 1479 1480 1481 1481 1482 1482 1481 1481 1480 1478 1477 1476 1476 1475